カタログに戻る

CZ-6A DEB

運用中SSO
NORAD 54348·DEBRIS·🇨🇳 China

打ち上げ Nov 11, 2022 から Taiyuan Satellite Launch Center

Loading…

次のパス (今後24時間)

TLE

最新Source: Space-Track

元期: Sep 14, 2026, 01:10 UTC

1 54348U 22151CT  26257.04865099  .00000671  00000-0  23129-3 0  9992
2 54348  98.6223 285.7629 0101686 135.3317 225.6117 14.36249284200346

AllMySatでCZ-6A DEBをリアルタイム追跡

Download on the App Store